Wind_Speed
15 15 15 15 14 14 13 13 12 12 12 12 12 13 14 14 14 15 15 15 15 16 16 16 16 16 16 16 16 16 15 16 16 16 16 16 18 21 22 22 22 22
16 16 15 15 15 14 14 13 13 13 13 13 13 13 14 14 14 14 15 15 15 15 16 16 16 17 17 17 17 17 17 17 17 17 18 17 18 20 22 23 23 23
17 16 16 16 15 14 14 14 13 13 13 14 13 13 14 14 14 14 14 14 15 15 15 16 16 17 17 17 18 18 19 19 18 19 19 19 19 20 21 23 23 24
18 17 16 16 16 15 14 14 13 13 13 13 13 13 14 14 15 15 14 15 15 14 15 15 16 17 17 18 18 19 20 20 20 20 19 20 20 20 21 22 23 24
19 18 17 16 16 15 14 13 13 12 13 13 14 14 15 15 15 16 15 15 15 15 15 15 16 17 18 19 19 20 21 21 21 21 20 20 21 21 22 22 23 24
17 15 15 16 16 16 15 13 13 13 14 14 14 15 16 16 16 16 16 16 15 15 16 17 17 17 18 19 19 20 21 21 21 22 21 22 22 22 22 23 23 23
12 14 16 18 18 17 16 14 13 14 15 15 15 16 16 17 17 16 17 17 16 16 17 18 19 19 19 19 19 20 22 22 22 22 22 23 23 22 23 23 24 24
13 16 18 18 18 17 16 15 15 15 15 16 17 18 17 18 19 19 19 19 19 18 19 19 20 20 20 20 20 20 21 22 22 22 22 23 23 23 24 24 24 25
16 16 16 16 17 17 16 16 16 17 17 17 18 18 18 19 21 22 21 20 19 20 21 21 21 21 21 22 23 22 22 22 23 23 23 23 24 24 25 25 25 25
17 17 16 16 17 19 19 17 16 17 17 18 18 17 18 20 22 23 23 22 21 20 21 22 22 22 22 23 23 24 23 23 23 24 24 24 24 24 25 25 25 25
19 17 15 15 16 18 20 19 18 18 17 18 18 18 18 19 21 23 24 24 22 21 22 22 22 22 23 23 23 24 24 24 24 24 24 25 25 24 24 24 24 25
19 17 15 14 14 14 15 16 17 18 18 18 18 18 18 19 21 22 24 25 24 22 22 23 23 23 24 24 23 23 23 25 25 24 24 24 25 25 24 24 24 25
18 16 15 13 13 13 13 13 13 14 17 19 19 20 21 21 22 22 22 24 25 24 24 24 24 24 24 24 24 23 23 24 25 25 24 24 24 24 24 25 25 25
13 12 11 11 12 13 14 14 13 14 17 20 22 23 23 23 22 22 22 23 25 25 25 24 24 24 24 24 24 24 25 24 24 24 24 23 23 24 24 25 25 25
7 8 8 8 9 11 11 12 13 14 17 19 22 22 21 21 21 21 22 23 23 24 24 25 25 25 24 23 23 24 25 25 25 24 24 24 24 24 25 25 25 26
5 7 7 6 7 9 9 10 11 12 14 17 19 20 20 19 18 18 20 22 22 23 24 24 25 25 24 24 25 25 25 25 25 25 25 25 25 26 26 26 25 25
6 7 8 8 8 8 9 10 11 12 13 15 17 19 19 18 16 15 17 19 20 21 22 23 23 23 24 25 26 26 25 25 25 25 25 25 26 26 26 26 26 26
7 8 8 8 9 10 10 11 11 12 13 13 14 15 15 14 13 14 15 16 18 20 21 22 22 22 21 21 21 21 21 21 22 24 24 25 25 25 26 26 26 26
8 8 8 8 9 9 10 10 10 10 10 9 9 9 9 10 11 11 12 13 15 16 16 16 16 16 16 15 15 15 15 16 17 18 20 21 22 22 22 22 21 20
8 8 8 8 8 7 7 7 7 6 7 7 8 8 9 10 9 8 8 9 11 12 12 10 11 11 11 10 10 10 11 11 11 11 12 14 16 16 16 15 14 13
6 6 6 5 5 4 3 3 3 4 4 6 6 7 8 8 7 6 7 8 9 10 10 10 9 10 10 9 8 8 9 9 9 9 9 10 11 11 11 11 12 12
5 4 4 4 3 1 1 1 2 3 4 4 5 6 7 6 5 6 7 7 8 8 9 9 10 10 10 9 8 7 7 7 8 8 9 9 9 10 11 11 11 12
5 4 4 3 2 1 1 2 4 4 5 5 6 7 7 6 5 5 6 6 7 8 8 8 9 9 9 9 8 8 8 8 8 9 9 9 10 11 12 13 13 14
5 5 4 3 2 2 3 4 5 5 5 6 6 7 8 7 7 6 6 6 7 7 7 8 8 9 9 9 10 10 11 11 11 11 11 11 12 13 14 15 16 17
4 3 2 1 2 3 3 4 4 5 5 5 6 7 7 7 8 8 8 8 8 8 9 9 10 10 11 11 12 12 13 13 14 14 14 14 14 15 16 17 18 18
3 2 1 1 1 1 2 2 3 4 5 5 6 6 7 7 8 9 9 10 10 9 10 10 10 11 12 12 13 13 14 15 16 17 17 17 17 17 19 20 20 20
Wind_Direction
218 219 220 218 213 210 210 207 210 218 223 225 226 227 228 227 226 227 228 230 233 235 238 240 241 240 240 241 241 241 240 242 247 253 255 251 246 244 243 241 240 239
222 223 224 224 221 219 222 222 222 226 231 236 238 240 240 239 237 235 235 236 238 240 241 242 244 244 244 245 245 245 245 244 245 249 253 252 248 246 246 245 245 243
227 228 230 232 231 230 232 235 236 238 242 246 249 251 253 256 255 251 249 247 246 247 247 248 249 249 248 247 247 247 248 248 247 247 251 253 251 249 249 249 249 249
231 233 237 238 237 237 238 242 246 251 255 260 263 262 261 263 265 266 264 263 261 259 257 257 259 260 257 253 250 250 251 253 252 252 252 254 255 254 252 252 253 254
233 235 238 241 244 247 249 251 256 261 266 270 274 275 272 268 267 268 268 269 272 273 269 264 262 262 262 259 256 253 254 255 256 256 256 256 257 258 258 258 257 257
239 248 253 255 256 257 257 258 262 267 271 274 276 278 279 278 274 270 267 265 267 271 274 272 266 261 260 261 261 259 258 258 258 259 259 258 258 260 262 263 262 261
252 257 256 255 253 252 255 257 260 264 269 272 272 271 271 274 276 273 268 262 257 257 262 264 266 266 264 261 260 258 259 260 260 260 260 260 260 260 261 263 264 264
245 242 241 247 254 258 261 261 258 259 264 265 265 265 264 264 265 264 262 261 259 258 259 259 261 265 267 266 264 260 258 258 259 260 260 261 261 261 260 260 262 264
243 244 243 249 256 260 266 272 265 258 259 263 265 267 269 267 264 262 260 259 259 260 262 262 262 264 266 268 269 267 263 259 258 259 259 259 259 260 260 260 261 262
253 254 253 255 256 256 264 275 271 259 256 262 268 272 272 269 267 266 265 263 262 262 264 265 267 268 269 268 268 267 266 264 261 260 260 259 258 258 260 262 263 264
257 259 261 263 263 260 262 266 264 259 259 263 266 267 267 266 266 266 267 266 267 268 267 268 268 269 269 270 269 266 265 265 264 262 261 262 262 262 263 265 267 268
263 268 270 267 262 261 266 271 265 257 258 262 262 260 260 263 265 267 267 267 266 265 264 265 267 268 268 270 271 269 265 264 265 264 262 262 264 266 268 268 268 269
270 272 273 265 257 259 270 278 274 261 257 259 262 263 264 267 271 271 269 266 262 261 262 263 265 267 269 270 270 270 268 265 263 262 263 264 264 265 267 268 268 269
274 275 273 260 253 257 262 265 267 266 263 264 269 270 268 270 274 272 267 265 263 260 261 263 265 266 267 269 271 272 272 268 263 260 260 261 263 264 264 266 267 268
268 267 262 251 245 250 255 257 260 264 266 270 276 277 272 271 274 269 264 265 264 261 261 265 269 269 268 271 274 274 273 272 269 266 264 262 260 261 262 264 265 266
261 261 259 255 251 253 260 266 271 273 271 272 275 276 274 274 274 269 265 265 265 264 266 271 275 276 276 277 277 275 273 272 272 271 269 266 263 262 263 264 265 267
270 273 276 277 278 280 282 281 280 281 278 274 273 274 275 277 275 269 265 264 264 267 270 274 277 279 280 280 280 278 275 271 269 269 269 268 266 264 263 263 265 267
274 277 282 285 285 285 284 283 283 282 279 276 275 276 279 279 275 269 266 267 270 271 272 273 273 274 277 279 279 278 276 272 268 266 266 268 268 266 264 264 266 268
264 267 269 271 273 274 273 276 280 280 279 280 282 285 287 284 279 276 279 282 282 278 274 273 272 271 271 274 277 279 281 278 272 267 266 267 267 266 264 264 265 268
256 258 260 262 265 267 268 274 282 285 286 288 289 290 288 285 285 291 296 294 286 278 275 276 279 280 280 281 285 289 291 289 284 281 278 274 269 266 263 264 266 269
250 252 256 259 261 263 269 283 301 305 300 295 295 293 290 289 297 305 302 295 288 283 285 289 295 299 303 308 311 309 304 300 297 295 292 288 282 278 277 278 279 279
233 238 243 245 242 242 284 327 335 330 318 310 307 301 296 299 311 311 306 304 301 297 299 307 311 312 311 312 312 309 305 302 301 298 297 297 298 298 297 295 292 291
209 215 219 221 226 253 326 334 335 332 323 319 319 313 308 314 321 316 309 307 305 304 308 314 315 314 311 308 304 299 297 299 300 301 301 301 299 297 296 293 292 292
199 205 213 224 261 303 320 322 321 318 314 314 315 312 311 314 316 311 304 300 298 299 301 303 303 303 302 299 295 293 293 295 296 296 294 292 289 288 287 287 288 290
206 212 232 274 304 311 314 312 309 307 308 309 305 302 303 304 303 302 300 297 294 294 294 296 296 295 293 292 290 289 290 290 290 289 287 285 284 283 282 282 283 284
204 203 206 243 290 301 313 318 318 318 318 316 310 307 307 305 303 303 301 299 299 301 300 299 296 294 293 294 292 290 289 287 285 283 282 281 280 279 277 277 278 278
Height
5923 5923 5923 5923 5924 5924 5924 5924 5924 5924 5924 5924 5924 5924 5925 5925 5925 5925 5925 5925 5926 5926 5926 5926 5926 5926 5926 5926 5926 5926 5926 5927 5926 5926 5926 5926 5926 5926 5927 5927 5928 5928
5921 5921 5921 5921 5922 5922 5922 5922 5923 5923 5923 5923 5924 5923 5923 5924 5924 5924 5923 5923 5923 5924 5924 5924 5924 5924 5924 5924 5924 5924 5924 5925 5925 5925 5924 5924 5924 5924 5925 5925 5926 5926
5919 5919 5920 5920 5920 5920 5920 5921 5921 5922 5923 5923 5924 5923 5923 5922 5923 5923 5922 5922 5922 5922 5922 5922 5922 5922 5922 5922 5922 5922 5922 5922 5923 5923 5923 5923 5923 5923 5923 5923 5923 5924
5917 5917 5918 5918 5918 5919 5919 5920 5921 5922 5922 5923 5923 5923 5923 5922 5921 5921 5921 5920 5920 5920 5920 5921 5921 5921 5921 5921 5921 5921 5920 5920 5920 5921 5921 5921 5921 5921 5921 5921 5921 5922
5915 5916 5917 5917 5918 5918 5919 5920 5920 5921 5921 5921 5921 5921 5921 5921 5920 5920 5919 5918 5918 5918 5918 5918 5918 5919 5919 5919 5919 5919 5919 5919 5919 5919 5919 5919 5919 5919 5919 5919 5919 5919
5915 5918 5919 5919 5918 5918 5918 5919 5919 5919 5919 5919 5918 5918 5918 5918 5918 5918 5917 5917 5916 5916 5916 5916 5916 5916 5916 5916 5917 5917 5917 5917 5917 5917 5917 5917 5917 5917 5917 5917 5917 5917
5918 5918 5917 5916 5916 5916 5917 5918 5917 5917 5916 5916 5915 5915 5914 5914 5914 5915 5915 5915 5915 5915 5915 5914 5914 5913 5913 5914 5914 5914 5914 5915 5915 5915 5915 5915 5915 5915 5915 5914 5914 5914
5914 5913 5912 5913 5915 5916 5917 5916 5916 5914 5914 5913 5912 5912 5912 5912 5911 5910 5910 5911 5912 5913 5913 5913 5912 5911 5911 5911 5911 5911 5912 5912 5912 5912 5912 5912 5913 5913 5912 5912 5912 5912
5910 5910 5911 5913 5914 5914 5914 5914 5914 5912 5911 5910 5909 5910 5911 5910 5909 5908 5907 5908 5909 5909 5910 5911 5911 5910 5910 5908 5908 5908 5909 5909 5909 5909 5909 5909 5910 5910 5910 5910 5910 5910
5908 5909 5910 5910 5911 5911 5911 5911 5911 5910 5908 5907 5907 5907 5908 5908 5907 5907 5906 5906 5905 5906 5906 5907 5907 5908 5907 5907 5906 5906 5906 5906 5906 5906 5906 5906 5907 5907 5907 5908 5908 5908
5905 5906 5907 5909 5909 5908 5908 5909 5908 5907 5906 5905 5904 5904 5904 5904 5905 5904 5904 5904 5904 5903 5903 5903 5903 5903 5904 5904 5904 5903 5903 5903 5903 5904 5904 5904 5904 5905 5905 5906 5906 5906
5903 5904 5905 5906 5906 5905 5905 5905 5905 5904 5903 5901 5900 5899 5900 5900 5901 5901 5901 5901 5901 5900 5900 5900 5900 5900 5900 5901 5901 5901 5901 5900 5900 5901 5901 5901 5902 5902 5903 5903 5903 5902
5901 5901 5902 5903 5903 5903 5902 5902 5901 5901 5900 5898 5897 5897 5898 5898 5898 5898 5898 5897 5897 5897 5897 5897 5897 5897 5897 5898 5898 5898 5898 5898 5898 5898 5898 5898 5898 5899 5899 5899 5899 5899
5899 5899 5899 5900 5900 5900 5899 5899 5898 5898 5896 5895 5895 5896 5896 5896 5895 5895 5894 5894 5894 5893 5894 5894 5894 5894 5895 5895 5895 5895 5895 5895 5895 5895 5895 5895 5895 5895 5895 5895 5895 5895
5896 5897 5897 5897 5897 5897 5897 5897 5896 5896 5894 5894 5894 5893 5892 5892 5892 5891 5891 5891 5891 5891 5891 5891 5891 5891 5891 5892 5892 5892 5892 5891 5892 5892 5892 5891 5891 5891 5891 5891 5892 5892
5895 5895 5895 5895 5895 5895 5895 5895 5895 5895 5894 5893 5892 5891 5889 5888 5888 5888 5888 5888 5888 5888 5888 5888 5888 5888 5888 5888 5889 5890 5889 5889 5888 5888 5888 5887 5887 5888 5888 5888 5888 5888
5894 5893 5893 5893 5894 5894 5893 5893 5893 5894 5893 5892 5891 5889 5887 5886 5885 5885 5885 5885 5885 5885 5885 5885 5885 5885 5885 5885 5885 5886 5886 5886 5885 5885 5884 5884 5883 5884 5884 5884 5884 5884
5892 5891 5891 5891 5892 5892 5891 5892 5892 5892 5892 5891 5889 5887 5886 5884 5883 5883 5882 5882 5883 5882 5882 5882 5882 5882 5882 5882 5882 5882 5882 5881 5881 5881 5881 5880 5880 5880 5880 5880 5880 5881
5890 5890 5890 5890 5890 5890 5890 5890 5890 5890 5889 5888 5887 5886 5884 5883 5882 5882 5882 5882 5882 5882 5882 5881 5881 5881 5880 5880 5880 5880 5879 5878 5878 5877 5877 5877 5877 5876 5876 5876 5877 5877
5888 5888 5888 5888 5888 5889 5888 5888 5888 5887 5887 5886 5885 5884 5883 5882 5881 5882 5882 5882 5881 5881 5881 5880 5880 5880 5879 5878 5877 5877 5877 5876 5875 5875 5874 5874 5874 5874 5874 5874 5874 5874
5887 5887 5887 5887 5887 5886 5886 5886 5886 5885 5884 5884 5883 5882 5881 5881 5881 5881 5881 5880 5880 5880 5879 5878 5878 5878 5878 5877 5876 5875 5875 5874 5874 5873 5873 5872 5872 5872 5872 5872 5872 5871
5885 5885 5885 5885 5884 5884 5884 5884 5883 5883 5882 5882 5881 5881 5880 5880 5880 5880 5880 5879 5879 5878 5878 5877 5876 5876 5877 5876 5875 5874 5873 5873 5873 5872 5872 5871 5871 5871 5870 5870 5869 5869
5884 5883 5883 5883 5882 5882 5882 5882 5881 5881 5881 5881 5880 5879 5879 5879 5879 5879 5878 5878 5877 5877 5877 5876 5876 5876 5875 5874 5873 5872 5872 5872 5871 5871 5871 5870 5870 5869 5868 5868 5867 5866
5883 5882 5882 5882 5881 5881 5881 5880 5880 5880 5880 5880 5879 5879 5878 5878 5878 5878 5877 5877 5877 5876 5876 5875 5875 5874 5873 5872 5872 5871 5870 5870 5870 5869 5869 5869 5868 5868 5867 5865 5865 5864
5882 5882 5881 5881 5881 5880 5880 5880 5880 5880 5879 5879 5879 5878 5878 5877 5877 5876 5876 5876 5875 5875 5875 5874 5873 5872 5871 5870 5870 5869 5868 5868 5867 5867 5867 5867 5866 5865 5864 5863 5862 5862
5882 5881 5881 5881 5881 5880 5880 5879 5879 5879 5878 5878 5877 5877 5876 5876 5875 5875 5874 5873 5873 5873 5872 5871 5870 5869 5869 5868 5867 5867 5866 5865 5865 5864 5864 5864 5863 5862 5861 5860 5859 5859